FENGYUN 1C DEB, 30321

Orbit data source: Space-Track

FENGYUN 1C DEB, 30321 is space debris in SSO originally from a launch on Mon, 10 May 1999 UTC launched from the Taiyaun Space Center, China (TSC). Fengyun 1C debris stems from the Chinese weather satellite Fengyun-1C, which was intentionally destroyed by a Chinese anti-satellite missile in 2007. This event dramatically increased the amount of space debris, with thousands of trackable fragments posing hazards to satellites and human spaceflight. The Fengyun 1C debris cloud has become a focal point in discussions about space sustainability and the need for international regulations to prevent the creation of new debris.

Loading next visibility...
Identifier
30321, 1999-025AAJ
Orbit
SSO
Country
Flag of CNCN / PRC
Related business
Manufacturer
Unknown
Mission
Spacecraft
Bus & Motor
Unknown
Mass
Unknown
Launch date (UTC)
1999-05-10 (27 years ago)
Launch vehicle
Unknown
Launch site
Taiyaun Space Center, China (TSC)
Object type
Payload
Rocket body
Debris
Shape & HBR
Unknown shape, 0.1 m
Radar Cross Section
Small (<0.1 m²)

Expand to show TLE details & history
Last TLE update: 12 hours ago

TLE from 12 hours ago
0 FENGYUN 1C DEB
1 30321U 99025AAJ 26061.94643459  .00000695  00000-0  36239-3 0  9999
2 30321  98.6608  63.8264 0060915   8.1752  52.2748 14.16757873986797
Epoch: 2026-03-02T22:42Z
TLE epoch observation values (Epoch: 2026-03-02T22:42:51.948Z)
Latitude
59.94368°
Longitude
-92.80156°
Altitude
819.771 km
Speed
7.463 km/s
True Right ascension
03h 14m 35s
True Declination
59° 47' 44"
Sunlit
Object was in daylight at epoch
Visualization orbit readout
Latitude
Unknown
Longitude
Unknown
Altitude
Unknown
Speed
Unknown
Apparent Right ascension
Unknown
Apparent Declination
Unknown
Sunlit
N/A
Visualization observer readout
Local Sidereal Time
14:52:06
Azimuth
Unknown
Elevation
Unknown
Doppler factor
Unknown
Orbital elements
Apogee altitude
877.428 km
Perigee altitude
789.569 km
Semi-major axis
7,211.636 km
Eccentricity
0.00609
Inclination
98.6608°
RAAN
63.8264°
Arg. of periapsis
8.1752°
True anomaly
52.82949°
Mean anomaly
52.2748°
Eccentric anomaly
52.55189°
Mean motion
3.54399 °/min
Orbital period
101.58 mins
BSTAR
0.00036239
Loading maneuver chart data...
Computing Atmospheric mass density...

Documentation

Showing up to 5 results
|